Stations météo

réclame
Mon MeteoGroup
Muenchen-Stadt, Allemagne (10865): Température de l'air & dewpoint: 15.06.2018 12:00:00 - 21.06.2018 12:00:00 (CEST)Muenchen-Stadt, Allemagne (10865): Température de l'air 5cm & Température de l'air -5cm: 15.06.2018 12:00:00 - 21.06.2018 12:00:00 (CEST)Muenchen-Stadt, Allemagne (10865): Température de l'air -20cm & Température de l'air -100cm: 15.06.2018 12:00:00 - 21.06.2018 12:00:00 (CEST)Muenchen-Stadt, Allemagne (10865): Vitesse du vent & gusts: 15.06.2018 12:00:00 - 21.06.2018 12:00:00 (CEST)Muenchen-Stadt, Allemagne (10865): Direction du vent: 15.06.2018 12:00:00 - 21.06.2018 12:00:00 (CEST)Muenchen-Stadt, Allemagne (10865): reduced air pressure: 15.06.2018 12:00:00 - 21.06.2018 12:00:00 (CEST)Muenchen-Stadt, Allemagne (10865): visibility: 15.06.2018 12:00:00 - 21.06.2018 12:00:00 (CEST)Muenchen-Stadt, Allemagne (10865): Ensoleillement: 15.06.2018 12:00:00 - 21.06.2018 12:00:00 (CEST)Muenchen-Stadt, Allemagne (10865): Quantités de précipitations: 15.06.2018 12:00:00 - 21.06.2018 12:00:00 (CEST)
Date & Time tt [°C] td [°C] tt 5cm [°C] tt -5cm [°C] tt -20cm [°C] tt -100cm [°C] ff [km/h] ff [knt] fx [km/h] fx [knt] dd ppp [hPa] vv [km] sd [min] rr [mm]
21.06.2018 12:00:00 27,1 15,7 32,9 29,6 22,3 19,5 15 8 37 20 WSW 1012,8 24 46 0,0
21.06.2018 11:00:00 25,3 15,1 27,0 27,6 22,1 19,5 19 11 31 17 W 1013,6 42 39 0,0
21.06.2018 10:00:00 25,4 15,9 29,8 25,2 22,2 19,5 12 7 24 13 W 1013,7 22 58 0,0
21.06.2018 09:00:00 23,9 15,4 26,5 21,5 22,4 19,5 9 5 16 9 SW 1014,5 14 60 0,0
21.06.2018 08:00:00 21,1 14,8 19,3 19,7 22,6 19,5 7 4 16 8 SW 1015,3 21 60 0,0
21.06.2018 07:00:00 18,8 14,3 16,9 19,5 22,8 19,5 8 4 15 8 SSW 1016,0 24 60 0,0
21.06.2018 06:00:00 17,5 14,1 15,5 19,6 23,0 19,5 7 4 12 7 SW 1016,4 40 19 0,0
21.06.2018 05:00:00 17,3 14,0 15,0 20,0 23,3 19,5 7 4 15 8 SSW 1016,3 46 0 0,0
21.06.2018 04:00:00 16,7 14,5 15,0 20,5 23,5 19,5 6 4 10 5 SW 1017,1 43 0 0,0
21.06.2018 03:00:00 17,4 14,9 15,5 21,0 23,8 19,5 5 3 10 5 S 1017,2 35 0 0,0
21.06.2018 02:00:00 17,7 15,0 15,5 21,6 24,0 19,5 6 3 6 4 S 1017,6 33 0 0,0
21.06.2018 01:00:00 18,3 14,8 16,7 22,2 24,2 19,5 0 0 4 2 N 1018,0 37 0 0,0
21.06.2018 00:00:00 19,2 14,8 17,4 23,0 24,4 19,5 4 2 5 3 ESE 1018,2 30 0 0,0
20.06.2018 23:00:00 20,2 14,6 18,3 23,8 24,5 19,5 5 3 6 3 ENE 1018,1 69 0 0,0
20.06.2018 22:00:00 21,7 14,2 19,5 24,9 24,6 19,5 5 3 9 5 ENE 1017,7 70 12 0,0
20.06.2018 21:00:00 24,1 13,5 22,1 26,2 24,6 19,4 6 4 14 8 ENE 1017,0 70 60 0,0
20.06.2018 20:00:00 25,9 12,8 24,3 27,5 24,5 19,4 8 4 15 8 ENE 1016,7 70 60 0,0
20.06.2018 19:00:00 26,6 12,9 25,4 29,2 24,1 19,4 5 3 18 10 NNE 1016,7 70 60 0,0
20.06.2018 18:00:00 27,2 13,7 29,7 32,4 23,7 19,4 6 3 20 11 NE 1016,8 68 60 0,0
20.06.2018 17:00:00 27,4 13,3 34,1 33,2 23,2 19,4 10 5 23 13 NNE 1017,3 70 60 0,0
20.06.2018 16:00:00 27,0 12,2 33,0 33,6 22,7 19,4 10 6 28 15 E 1017,8 54 60 0,0
20.06.2018 15:00:00 26,7 12,5 32,8 33,5 22,2 19,4 13 7 28 15 ENE 1018,3 67 60 0,0
20.06.2018 14:00:00 26,0 12,5 32,8 32,6 21,7 19,4 14 8 25 14 NNE 1018,8 36 57 0,0
20.06.2018 13:00:00 25,0 12,5 31,4 30,9 21,3 19,4 15 8 26 14 NE 1019,6 26 50 0,0
20.06.2018 12:00:00 25,4 12,6 28,7 29,4 21,0 19,4 11 6 25 14 E 1019,9 43 57 0,0
20.06.2018 11:00:00 24,6 13,9 30,2 26,9 20,9 19,4 16 8 27 14 ENE 1020,2 22 60 0,0
20.06.2018 10:00:00 24,2 13,5 28,1 23,8 20,9 19,4 15 8 25 14 ESE 1020,5 19 60 0,0
20.06.2018 09:00:00 22,4 13,2 24,4 19,9 21,1 19,4 10 5 18 10 E 1021,1 22 60 0,0
20.06.2018 08:00:00 19,3 13,4 17,4 18,1 21,3 19,4 6 3 8 5 SE 1022,0 18 60 0,0
20.06.2018 07:00:00 16,4 14,7 14,6 17,9 21,5 19,4 3 1 6 3 E 1022,6 30 60 0,0
20.06.2018 06:00:00 14,5 13,3 13,2 17,9 21,7 19,4 4 2 5 3 ENE 1023,2 30 6 0,0
20.06.2018 05:00:00 14,5 13,3 13,0 18,3 21,9 19,4 4 2 5 3 NNE 1023,2 28 0 0,0
20.06.2018 04:00:00 15,0 13,4 13,7 18,7 22,1 19,4 0 0 8 4 N 1023,2 38 0 0,0
20.06.2018 03:00:00 15,6 13,7 14,2 19,2 22,4 19,4 4 2 9 5 S 1023,3 47 0 0,0
20.06.2018 02:00:00 16,6 14,2 14,8 19,7 22,6 19,4 5 3 10 5 SSE 1023,5 47 0 0,0
20.06.2018 01:00:00 16,6 14,2 14,9 20,2 22,8 19,4 5 3 8 4 SSE 1023,6 47 0 0,0
20.06.2018 00:00:00 17,2 14,2 15,6 20,8 22,9 19,4 6 3 6 4 ESE 1023,5 58 0 0,0
19.06.2018 23:00:00 18,3 14,4 16,4 21,6 23,1 19,4 5 3 6 4 ESE 1023,3 60 0 0,0
19.06.2018 22:00:00 19,3 14,0 17,4 22,5 23,2 19,4 4 2 8 5 NNE 1023,0 70 8 0,0
19.06.2018 21:00:00 21,5 13,3 19,5 23,6 23,2 19,4 7 4 13 7 N 1022,3 70 60 0,0
19.06.2018 20:00:00 23,1 12,5 21,6 24,8 23,0 19,4 9 5 18 10 NNW 1021,9 70 60 0,0
19.06.2018 19:00:00 23,8 13,4 23,0 26,4 22,8 19,4 12 7 19 11 N 1021,9 70 38 0,0
19.06.2018 18:00:00 23,9 11,4 25,2 28,4 22,5 19,4 12 7 21 11 NW 1022,0 70 37 0,0
19.06.2018 17:00:00 23,6 12,4 25,7 29,3 22,2 19,4 6 4 20 11 NNW 1022,3 70 38 0,0
19.06.2018 16:00:00 24,3 12,0 30,2 28,9 21,8 19,4 10 5 24 13 WNW 1022,4 65 38 0,0
19.06.2018 15:00:00 22,7 10,8 27,4 28,7 21,5 19,4 9 5 21 12 W 1023,1 35 33 0,0
19.06.2018 14:00:00 21,9 12,2 24,0 27,7 21,2 19,4 9 5 20 11 WNW 1023,6 52 11 0,0
19.06.2018 13:00:00 22,3 11,0 27,7 27,7 20,9 19,4 10 5 23 13 WSW 1023,4 38 27 0,0
19.06.2018 12:00:00 21,5 11,5 25,1 26,9 20,7 19,3 7 4 19 11 WNW 1023,8 48 46 0,0
19.06.2018 11:00:00 21,0 11,7 26,0 23,9 20,6 19,3 7 4 19 10 W 1024,2 31 31 0,0
19.06.2018 10:00:00 20,2 11,6 24,6 22,0 20,6 19,3 9 5 17 9 W 1024,5 33 36 0,0
19.06.2018 09:00:00 18,9 10,9 21,7 20,0 20,7 19,3 7 4 15 8 WNW 1024,5 26 32 0,0
19.06.2018 08:00:00 17,3 12,1 17,4 18,4 20,8 19,3 8 5 14 7 W 1024,6 25 6 0,0
19.06.2018 07:00:00 16,0 12,0 15,6 17,6 21,0 19,3 6 3 10 5 WSW 1024,6 23 17 0,0
19.06.2018 06:00:00 15,3 12,1 14,6 17,5 21,2 19,3 6 3 10 5 W 1024,4 31 0 0,0
19.06.2018 05:00:00 14,2 12,4 12,5 17,5 21,4 19,3 5 3 8 4 SW 1024,0 29 0 0,0
19.06.2018 04:00:00 14,1 12,7 12,6 17,9 21,7 19,3 6 3 8 5 W 1023,8 28 0 0,0
19.06.2018 03:00:00 14,7 13,1 13,3 18,4 21,9 19,3 4 2 7 4 W 1023,7 29 0 0,0
19.06.2018 02:00:00 15,5 13,4 14,9 18,8 22,1 19,3 5 3 8 4 W 1023,4 31 0 0,0
19.06.2018 01:00:00 15,9 13,4 15,0 19,1 22,3 19,3 4 2 6 4 SSW 1023,2 36 0 0,0
19.06.2018 00:00:00 16,1 13,1 13,9 19,6 22,5 19,3 6 3 8 4 S 1023,2 37 0 0,0
18.06.2018 23:00:00 16,4 12,9 14,6 20,3 22,6 19,3 3 2 4 2 NW 1023,0 44 0 0,0
18.06.2018 22:00:00 17,6 12,4 15,7 21,2 22,7 19,3 3 2 5 3 WSW 1022,1 58 2 0,0
18.06.2018 21:00:00 20,3 11,0 18,1 22,3 22,8 19,3 5 3 16 8 NW 1021,2 70 59 0,0
18.06.2018 20:00:00 21,4 10,6 20,3 23,4 22,7 19,3 9 5 20 11 NW 1020,7 70 34 0,0
18.06.2018 19:00:00 22,1 10,7 21,5 24,6 22,6 19,3 13 7 23 12 W 1020,5 62 41 0,0
18.06.2018 18:00:00 21,8 10,8 23,0 26,7 22,4 19,3 9 5 28 15 WNW 1020,3 52 39 0,0
18.06.2018 17:00:00 22,6 11,3 26,0 26,8 22,1 19,3 14 8 26 14 NW 1020,4 39 29 0,0
18.06.2018 16:00:00 21,8 11,9 24,4 26,9 21,8 19,3 11 6 21 11 NNW 1020,8 44 26 0,0
18.06.2018 15:00:00 21,5 10,7 25,8 27,3 21,5 19,2 14 7 24 13 WNW 1021,1 37 41 0,0
18.06.2018 14:00:00 21,4 11,9 25,8 27,1 21,3 19,2 9 5 21 12 NW 1021,3 42 18 0,0
18.06.2018 13:00:00 20,5 10,4 24,3 27,1 21,1 19,2 7 4 24 13 WNW 1021,7 29 38 0,0
18.06.2018 12:00:00 19,9 12,3 22,1 25,2 20,9 19,2 7 4 18 10 W 1021,7 29 26 0,0
18.06.2018 11:00:00 17,9 10,6 20,6 23,2 20,9 19,2 9 5 19 11 NW 1022,3 35 1 0,0
18.06.2018 10:00:00 18,3 12,0 20,7 22,0 20,9 19,2 9 5 19 10 WNW 1022,2 25 27 0,0
18.06.2018 09:00:00 17,3 12,4 18,8 20,1 21,0 19,2 7 4 18 10 W 1022,0 32 7 0,0
18.06.2018 08:00:00 16,2 13,2 17,0 19,0 21,2 19,2 8 4 13 7 WNW 1021,9 19 8 0,0
18.06.2018 07:00:00 15,7 14,0 15,4 18,2 21,4 19,2 8 4 13 7 W 1021,8 23 5 0,0
18.06.2018 06:00:00 15,3 14,2 14,9 18,1 21,6 19,2 6 3 15 8 W 1021,6 17 0 0,0
18.06.2018 05:00:00 15,5 14,4 15,0 18,4 21,8 19,2 8 4 13 7 SW 1021,1 21 0 0,0
18.06.2018 04:00:00 15,6 14,5 15,2 18,5 22,1 19,2 7 4 14 8 WSW 1021,0 21 0 0,0
18.06.2018 03:00:00 15,6 14,7 15,2 18,8 22,3 19,2 8 4 15 8 SW 1021,0 15 0 0,0
18.06.2018 02:00:00 15,5 14,5 15,2 19,1 22,6 19,1 9 5 14 7 WSW 1020,9 17 0 0,0
18.06.2018 01:00:00 15,8 14,3 15,3 19,5 22,9 19,1 8 5 16 9 SSW 1020,6 23 0 0,0
18.06.2018 00:00:00 16,1 14,9 15,5 19,9 23,1 19,1 8 4 14 8 SSW 1020,5 19 0 0,8
17.06.2018 23:00:00 16,2 15,2 15,8 20,4 23,4 19,1 6 3 12 7 WSW 1020,1 10 0 2,2
17.06.2018 22:00:00 16,3 15,4 15,8 21,0 23,6 19,1 9 5 25 13 SW 1019,7 6 0 4,3
17.06.2018 21:00:00 16,4 15,1 16,0 22,7 23,6 19,1 16 9 26 14 W 1018,9 3,0 0 3,4
17.06.2018 20:00:00 18,3 14,3 17,0 25,3 23,5 19,1 12 6 34 19 SSW 1017,1 38 0 0,0
17.06.2018 19:00:00 22,3 12,3 22,5 27,6 23,3 19,1 14 8 26 14 NNW 1015,7 57 28 0,0
17.06.2018 18:00:00 23,1 14,1 25,6 29,6 22,9 19,1 12 6 29 16 N 1015,2 44 32 0,0
17.06.2018 17:00:00 23,4 13,0 26,2 31,1 22,6 19,1 11 6 26 14 NNW 1015,5 42 57 0,0
17.06.2018 16:00:00 23,5 14,2 29,4 29,4 22,4 19,1 14 8 26 14 NNW 1015,5 42 30 0,0
17.06.2018 15:00:00 21,4 13,9 24,7 27,9 22,1 19,1 7 4 21 11 N 1016,3 34 2 0,0
17.06.2018 14:00:00 19,2 13,4 20,5 27,3 21,7 19,1 11 6 29 16 WNW 1017,2 34 0 0,0
17.06.2018 13:00:00 20,2 14,1 22,9 30,6 21,3 19,1 20 11 36 19 WNW 1017,1 21 36 0,0
17.06.2018 12:00:00 21,9 13,1 26,6 30,0 21,0 19,1 10 5 26 14 NW 1016,4 15 46 0,0
17.06.2018 11:00:00 21,8 13,0 26,2 27,3 20,8 19,0 11 6 25 13 WNW 1016,3 25 48 0,0
17.06.2018 10:00:00 21,1 11,7 24,6 24,9 20,8 19,0 12 7 23 12 WNW 1016,3 14 53 0,0
17.06.2018 09:00:00 19,4 11,0 22,0 20,6 20,9 19,0 13 7 20 11 WSW 1016,5 26 44 0,0
17.06.2018 08:00:00 18,0 10,8 18,0 19,3 21,1 19,0 9 5 15 8 WSW 1016,3 42 0 0,0
17.06.2018 07:00:00 16,7 11,3 16,8 18,3 21,3 19,0 8 4 15 8 WSW 1016,3 31 0 0,0
17.06.2018 06:00:00 15,5 10,7 14,8 17,7 21,6 19,0 8 4 11 6 WSW 1016,2 32 0 0,0
17.06.2018 05:00:00 15,1 10,2 14,0 17,4 21,9 19,0 6 3 12 7 WSW 1016,2 33 0 0,0
17.06.2018 04:00:00 14,8 9,9 13,2 17,9 22,2 19,0 7 4 12 6 SSW 1016,2 32 0 0,0
17.06.2018 03:00:00 14,6 10,7 13,5 18,4 22,4 19,0 5 3 12 6 W 1016,3 23 0 0,0
17.06.2018 02:00:00 14,7 11,5 13,3 18,9 22,7 19,0 5 3 7 4 S 1016,2 24 0 0,0
17.06.2018 01:00:00 15,3 11,2 13,7 19,7 23,0 19,0 6 4 8 4 WSW 1016,2 24 0 0,0
17.06.2018 00:00:00 16,4 11,4 14,7 20,6 23,3 19,0 6 3 7 4 WSW 1015,8 25 0 0,0
16.06.2018 23:00:00 17,2 11,0 15,7 21,5 23,5 19,0 3 2 6 3 NNW 1015,4 37 0 0,0
16.06.2018 22:00:00 18,7 10,1 16,7 22,7 23,6 19,0 5 3 13 7 WNW 1014,7 38 0 0,0
16.06.2018 21:00:00 21,4 9,2 19,3 24,3 23,6 19,0 9 5 13 7 NNW 1013,7 59 32 0,0
16.06.2018 20:00:00 22,8 8,6 21,3 26,1 23,5 19,0 5 3 16 9 NE 1013,0 48 60 0,0
16.06.2018 19:00:00 23,8 8,6 23,3 28,1 23,2 19,0 8 4 16 9 NE 1012,7 54 60 0,0
16.06.2018 18:00:00 24,5 8,9 26,7 31,7 22,7 19,0 7 4 18 10 NE 1012,6 61 55 0,0
16.06.2018 17:00:00 24,5 7,8 29,7 33,0 22,1 19,1 14 7 23 12 ENE 1012,8 58 57 0,0
16.06.2018 16:00:00 24,2 7,8 31,5 33,4 21,4 19,1 8 5 24 13 ENE 1013,1 58 48 0,0
16.06.2018 15:00:00 25,0 9,4 30,4 34,1 20,7 19,1 8 4 24 13 ENE 1013,2 52 55 0,0
16.06.2018 14:00:00 23,5 7,5 28,5 34,1 20,1 19,1 13 7 22 12 E 1013,8 31 48 0,0
16.06.2018 13:00:00 23,5 8,9 26,7 33,2 19,5 19,1 10 5 29 16 ENE 1014,3 41 55 0,0
16.06.2018 12:00:00 22,7 9,1 27,5 30,3 19,1 19,1 13 7 27 15 ENE 1014,7 23 60 0,0
16.06.2018 11:00:00 22,3 9,2 27,0 26,9 18,9 19,1 10 5 22 12 E 1014,7 15 60 0,0
16.06.2018 10:00:00 21,1 8,8 24,9 23,0 18,9 19,1 6 3 14 8 E 1015,2 17 60 0,0
16.06.2018 09:00:00 18,3 8,7 21,6 17,8 19,0 19,1 4 2 9 5 E 1015,7 25 60 0,0
16.06.2018 08:00:00 15,5 8,8 14,0 14,6 19,2 19,1 2 1 9 5 SW 1016,3 29 60 0,0
16.06.2018 07:00:00 13,4 8,6 12,0 14,2 19,5 19,1 5 3 8 4 S 1016,7 26 60 0,0
16.06.2018 06:00:00 10,9 9,0 9,7 14,2 19,7 19,1 3 2 6 3 SW 1017,1 34 9 0,0
16.06.2018 05:00:00 12,0 9,2 10,3 14,6 20,0 19,1 6 3 11 6 SSW 1016,7 36 0 0,0
16.06.2018 04:00:00 11,7 10,0 10,2 15,0 20,3 19,1 6 4 8 5 S 1017,0 29 0 0,0
16.06.2018 03:00:00 11,8 10,0 10,4 15,5 20,6 19,2 4 2 5 3 S 1017,4 24 0 0,0
16.06.2018 02:00:00 12,2 10,1 10,9 16,0 20,8 19,2 4 2 6 3 W 1017,5 22 0 0,0
16.06.2018 01:00:00 13,2 10,2 11,4 16,7 21,1 19,2 5 3 8 4 SW 1017,4 25 0 0,0
16.06.2018 00:00:00 13,7 9,9 12,0 17,4 21,3 19,2 5 3 9 5 W 1017,3 28 0 0,0
15.06.2018 23:00:00 14,7 9,6 13,1 18,3 21,5 19,2 0 0 5 3 N 1017,1 49 0 0,0
15.06.2018 22:00:00 16,1 9,0 14,2 19,4 21,7 19,2 4 2 9 5 ENE 1016,5 61 1 0,0
15.06.2018 21:00:00 18,3 7,8 16,3 20,8 21,7 19,2 7 4 19 11 ENE 1015,7 65 24 0,0
15.06.2018 20:00:00 20,2 7,5 19,0 22,3 21,6 19,3 10 5 21 11 ENE 1015,2 65 60 0,0
15.06.2018 19:00:00 20,9 7,4 20,1 24,1 21,3 19,3 11 6 21 11 E 1014,8 65 51 0,0
15.06.2018 18:00:00 21,2 7,0 22,8 27,6 20,8 19,3 9 5 24 13 NE 1014,8 65 59 0,0
15.06.2018 17:00:00 21,7 7,4 27,7 29,0 20,3 19,3 9 5 21 11 E 1015,0 56 60 0,0
15.06.2018 16:00:00 21,8 7,3 26,4 29,4 19,8 19,3 11 6 26 14 ENE 1015,1 59 58 0,0
15.06.2018 15:00:00 20,3 6,4 25,6 29,4 19,3 19,3 11 6 22 12 E 1015,7 33 49 0,0
15.06.2018 14:00:00 19,9 6,9 26,6 29,1 18,7 19,4 6 3 21 11 NE 1015,9 33 54 0,0
15.06.2018 13:00:00 19,6 6,6 24,4 28,6 18,3 19,4 11 6 19 11 ENE 1016,2 16 60 0,0
15.06.2018 12:00:00 19,1 5,8 22,4 26,4 17,9 19,4 9 5 19 11 ENE 1016,2 17 60 0,0

tt = Température de l'air
td = dewpoint
tt 5cm = Température de l'air 5cm
tt -5cm = Température de l'air -5cm
tt -20cm = Température de l'air -20cm
tt -100cm = Température de l'air -100cm
ff = Vitesse du vent
fx = gusts
dd = Direction du vent
ppp = reduced air pressure
vv = visibility
sd = Ensoleillement
rr = Quantités de précipitations

stations d'obs. à proximité